Time,TemperatureF,DewpointF,PressureIn,WindDirection,WindDirectionDegrees,WindSpeedMPH,WindSpeedGustMPH,Humidity,HourlyPrecipIn,Conditions,Clouds,dailyrainin,SoftwareType,DateUTC
2013-03-04 00:03:00,33.1,24.7,29.76,East,90,2.0,2.0,71,0.00,,,0.00,Wunderground v.1.15,2013-03-04 06:03:00,
2013-03-04 00:13:00,33.0,24.6,29.75,SSW,199,1.0,1.0,71,0.00,,,0.00,Wunderground v.1.15,2013-03-04 06:13:00,
2013-03-04 00:23:00,33.0,24.6,29.75,SSW,202,1.0,2.0,71,0.00,,,0.00,Wunderground v.1.15,2013-03-04 06:23:00,
2013-03-04 00:33:00,33.0,24.6,29.75,South,178,2.0,2.0,71,0.00,,,0.00,Wunderground v.1.15,2013-03-04 06:33:00,
2013-03-04 00:43:00,32.8,24.4,29.74,SSW,202,1.0,1.0,71,0.00,,,0.00,Wunderground v.1.15,2013-03-04 06:43:00,
2013-03-04 00:53:00,32.8,24.4,29.74,SSW,206,1.0,1.0,71,0.00,,,0.00,Wunderground v.1.15,2013-03-04 06:53:00,
2013-03-04 01:03:00,32.8,24.4,29.73,SSW,203,1.0,1.0,71,0.00,,,0.00,Wunderground v.1.15,2013-03-04 07:03:00,
2013-03-04 01:18:00,33.0,24.6,29.72,South,187,3.0,3.0,71,0.00,,,0.00,Wunderground v.1.15,2013-03-04 07:18:00,
2013-03-04 01:23:00,32.9,24.5,29.71,South,178,2.0,3.0,71,0.00,,,0.00,Wunderground v.1.15,2013-03-04 07:23:00,
2013-03-04 01:33:00,32.9,24.5,29.71,SE,146,2.0,2.0,71,0.00,,,0.00,Wunderground v.1.15,2013-03-04 07:33:00,
2013-03-04 01:43:00,32.9,24.5,29.72,SSW,207,2.0,2.0,71,0.00,,,0.00,Wunderground v.1.15,2013-03-04 07:43:00,
2013-03-04 01:53:00,32.8,24.4,29.72,SSW,205,2.0,2.0,71,0.00,,,0.00,Wunderground v.1.15,2013-03-04 07:53:00,
2013-03-04 02:03:00,32.7,24.3,29.73,SSE,168,2.0,2.0,71,0.00,,,0.00,Wunderground v.1.15,2013-03-04 08:03:00,
2013-03-04 02:13:00,32.7,24.3,29.72,SSW,211,2.0,2.0,71,0.00,,,0.00,Wunderground v.1.15,2013-03-04 08:13:00,
2013-03-04 02:23:00,32.6,24.6,29.72,SSW,198,1.0,1.0,72,0.00,,,0.00,Wunderground v.1.15,2013-03-04 08:23:00,
2013-03-04 02:33:00,32.4,24.4,29.72,ESE,115,1.0,2.0,72,0.00,,,0.00,Wunderground v.1.15,2013-03-04 08:33:00,
2013-03-04 02:43:00,32.4,24.4,29.71,SSW,201,1.0,2.0,72,0.00,,,0.00,Wunderground v.1.15,2013-03-04 08:43:00,
2013-03-04 02:53:00,32.3,24.3,29.71,South,180,1.0,1.0,72,0.00,,,0.00,Wunderground v.1.15,2013-03-04 08:53:00,
2013-03-04 03:03:00,32.2,24.5,29.71,South,171,1.0,1.0,73,0.00,,,0.00,Wunderground v.1.15,2013-03-04 09:03:00,
2013-03-04 03:13:00,32.1,24.4,29.70,SSE,148,1.0,1.0,73,0.00,,,0.00,Wunderground v.1.15,2013-03-04 09:13:00,
2013-03-04 03:23:00,31.9,24.2,29.70,SSE,159,1.0,1.0,73,0.00,,,0.00,Wunderground v.1.15,2013-03-04 09:23:00,
2013-03-04 03:33:00,31.9,24.2,29.70,South,169,0.0,0.0,73,0.00,,,0.00,Wunderground v.1.15,2013-03-04 09:33:00,
2013-03-04 03:43:00,31.8,24.5,29.70,South,176,0.0,0.0,74,0.00,,,0.00,Wunderground v.1.15,2013-03-04 09:43:00,
2013-03-04 03:53:00,31.8,24.5,29.70,South,172,1.0,1.0,74,0.00,,,0.00,Wunderground v.1.15,2013-03-04 09:53:00,
2013-03-04 04:03:00,31.7,24.4,29.70,SE,126,0.0,0.0,74,0.00,,,0.00,Wunderground v.1.15,2013-03-04 10:03:00,
2013-03-04 04:13:00,31.8,24.5,29.70,South,190,0.0,1.0,74,0.00,,,0.00,Wunderground v.1.15,2013-03-04 10:13:00,
2013-03-04 04:23:00,31.8,24.5,29.70,SSW,202,0.0,0.0,74,0.00,,,0.00,Wunderground v.1.15,2013-03-04 10:23:00,
2013-03-04 04:33:00,31.7,24.4,29.71,WSW,245,0.0,1.0,74,0.00,,,0.00,Wunderground v.1.15,2013-03-04 10:33:00,
2013-03-04 04:43:00,31.7,24.4,29.71,South,184,0.0,1.0,74,0.00,,,0.00,Wunderground v.1.15,2013-03-04 10:43:00,
2013-03-04 04:53:00,31.6,24.3,29.70,South,183,0.0,0.0,74,0.00,,,0.00,Wunderground v.1.15,2013-03-04 10:53:00,
2013-03-04 05:03:00,31.5,24.2,29.71,SE,138,0.0,0.0,74,0.00,,,0.00,Wunderground v.1.15,2013-03-04 11:03:00,
2013-03-04 05:13:00,31.5,24.2,29.72,SSW,205,0.0,0.0,74,0.00,,,0.00,Wunderground v.1.15,2013-03-04 11:13:00,
2013-03-04 05:23:00,31.4,24.4,29.72,SSE,158,0.0,0.0,75,0.00,,,0.00,Wunderground v.1.15,2013-03-04 11:23:00,
2013-03-04 05:33:00,31.2,24.2,29.72,SSE,153,0.0,0.0,75,0.00,,,0.00,Wunderground v.1.15,2013-03-04 11:33:00,
2013-03-04 05:43:00,31.2,24.2,29.71,SSW,198,0.0,0.0,75,0.00,,,0.00,Wunderground v.1.15,2013-03-04 11:43:00,
2013-03-04 05:53:00,31.2,24.2,29.71,South,188,0.0,0.0,75,0.00,,,0.00,Wunderground v.1.15,2013-03-04 11:53:00,
2013-03-04 06:03:00,31.3,24.3,29.71,SSE,155,0.0,0.0,75,0.00,,,0.00,Wunderground v.1.15,2013-03-04 12:03:00,
2013-03-04 06:13:00,31.2,24.5,29.72,SSE,155,0.0,0.0,76,0.00,,,0.00,Wunderground v.1.15,2013-03-04 12:13:00,
2013-03-04 06:23:00,31.2,24.5,29.71,SSE,157,0.0,0.0,76,0.00,,,0.00,Wunderground v.1.15,2013-03-04 12:23:00,
2013-03-04 06:33:00,31.1,24.4,29.71,SSE,157,0.0,0.0,76,0.00,,,0.00,Wunderground v.1.15,2013-03-04 12:33:00,
2013-03-04 06:43:00,31.1,24.4,29.71,SSE,159,0.0,0.0,76,0.00,,,0.00,Wunderground v.1.15,2013-03-04 12:43:00,
2013-03-04 06:53:00,31.0,24.3,29.72,South,170,0.0,0.0,76,0.00,,,0.00,Wunderground v.1.15,2013-03-04 12:53:00,
2013-03-04 07:03:00,30.9,24.5,29.72,South,173,0.0,0.0,77,0.00,,,0.00,Wunderground v.1.15,2013-03-04 13:03:00,
2013-03-04 07:13:00,30.8,24.4,29.72,South,171,0.0,0.0,77,0.00,,,0.00,Wunderground v.1.15,2013-03-04 13:13:00,
2013-03-04 07:23:00,30.9,24.5,29.72,South,169,0.0,0.0,77,0.00,,,0.00,Wunderground v.1.15,2013-03-04 13:23:00,
2013-03-04 07:33:00,31.0,24.6,29.72,SSE,168,0.0,0.0,77,0.00,,,0.00,Wunderground v.1.15,2013-03-04 13:33:00,
2013-03-04 07:48:00,31.4,25.0,29.72,SSE,168,0.0,0.0,77,0.00,,,0.00,Wunderground v.1.15,2013-03-04 13:48:00,
2013-03-04 07:53:00,31.6,25.2,29.72,SSE,159,0.0,0.0,77,0.00,,,0.00,Wunderground v.1.15,2013-03-04 13:53:00,
2013-03-04 08:03:00,32.1,25.7,29.72,SSE,150,0.0,0.0,77,0.00,,,0.00,Wunderground v.1.15,2013-03-04 14:03:00,
2013-03-04 08:13:00,32.7,25.6,29.72,SW,227,0.0,0.0,75,0.00,,,0.00,Wunderground v.1.15,2013-03-04 14:13:00,
2013-03-04 08:23:00,33.0,25.9,29.73,ESE,119,0.0,1.0,75,0.00,,,0.00,Wunderground v.1.15,2013-03-04 14:23:00,
2013-03-04 08:33:00,33.5,26.1,29.74,SW,234,0.0,0.0,74,0.00,,,0.00,Wunderground v.1.15,2013-03-04 14:33:00,
2013-03-04 08:43:00,34.0,26.6,29.74,SW,221,0.0,1.0,74,0.00,,,0.00,Wunderground v.1.15,2013-03-04 14:43:00,
2013-03-04 08:53:00,34.4,26.6,29.74,SE,130,0.0,0.0,73,0.00,,,0.00,Wunderground v.1.15,2013-03-04 14:53:00,
2013-03-04 09:03:00,34.9,26.8,29.75,SE,141,0.0,1.0,72,0.00,,,0.00,Wunderground v.1.15,2013-03-04 15:03:00,
2013-03-04 09:13:00,35.3,27.2,29.75,SE,137,0.0,0.0,72,0.00,,,0.00,Wunderground v.1.15,2013-03-04 15:13:00,
2013-03-04 09:23:00,36.0,27.5,29.75,South,180,0.0,0.0,71,0.00,,,0.00,Wunderground v.1.15,2013-03-04 15:23:00,
2013-03-04 09:33:00,37.1,28.2,29.75,ESE,123,0.0,0.0,70,0.00,,,0.00,Wunderground v.1.15,2013-03-04 15:33:00,
2013-03-04 09:43:00,38.3,28.7,29.75,SE,133,0.0,0.0,68,0.00,,,0.00,Wunderground v.1.15,2013-03-04 15:43:00,
2013-03-04 09:53:00,39.4,29.0,29.76,SE,137,0.0,0.0,66,0.00,,,0.00,Wunderground v.1.15,2013-03-04 15:53:00,
2013-03-04 10:03:00,40.5,29.7,29.76,SE,131,0.0,0.0,65,0.00,,,0.00,Wunderground v.1.15,2013-03-04 16:03:00,
2013-03-04 10:13:00,41.2,29.5,29.76,South,173,0.0,0.0,63,0.00,,,0.00,Wunderground v.1.15,2013-03-04 16:13:00,
2013-03-04 10:23:00,42.1,30.0,29.75,SSE,168,0.0,0.0,62,0.00,,,0.00,Wunderground v.1.15,2013-03-04 16:23:00,
2013-03-04 10:33:00,42.9,30.4,29.75,SSE,164,1.0,1.0,61,0.00,,,0.00,Wunderground v.1.15,2013-03-04 16:33:00,
2013-03-04 10:43:00,43.1,30.1,29.76,SSW,202,0.0,0.0,60,0.00,,,0.00,Wunderground v.1.15,2013-03-04 16:43:00,
2013-03-04 10:53:00,43.6,30.6,29.76,SSW,200,0.0,0.0,60,0.00,,,0.00,Wunderground v.1.15,2013-03-04 16:53:00,
2013-03-04 11:03:00,44.5,30.6,29.77,SSW,195,0.0,0.0,58,0.00,,,0.00,Wunderground v.1.15,2013-03-04 17:03:00,
2013-03-04 11:13:00,45.8,32.7,29.77,SE,137,0.0,0.0,60,0.00,,,0.00,Wunderground v.1.15,2013-03-04 17:13:00,
2013-03-04 11:23:00,46.5,32.9,29.77,SE,137,0.0,0.0,59,0.00,,,0.00,Wunderground v.1.15,2013-03-04 17:23:00,
2013-03-04 11:33:00,46.7,32.7,29.78,SE,137,0.0,0.0,58,0.00,,,0.00,Wunderground v.1.15,2013-03-04 17:33:00,
2013-03-04 11:43:00,47.1,32.6,29.78,SSE,164,0.0,0.0,57,0.00,,,0.00,Wunderground v.1.15,2013-03-04 17:43:00,
2013-03-04 11:53:00,46.8,32.4,29.78,SSW,194,0.0,5.0,57,0.00,,,0.00,Wunderground v.1.15,2013-03-04 17:53:00,
2013-03-04 12:03:00,46.5,31.6,29.78,WSW,246,1.0,2.0,56,0.00,,,0.00,Wunderground v.1.15,2013-03-04 18:03:00,
2013-03-04 12:13:00,46.5,32.5,29.78,NNE,13,1.0,1.0,58,0.00,,,0.00,Wunderground v.1.15,2013-03-04 18:13:00,
2013-03-04 12:23:00,47.5,33.4,29.78,North,11,1.0,1.0,58,0.00,,,0.00,Wunderground v.1.15,2013-03-04 18:23:00,
2013-03-04 12:33:00,48.6,34.9,29.78,North,11,1.0,2.0,59,0.00,,,0.00,Wunderground v.1.15,2013-03-04 18:33:00,
2013-03-04 12:38:00,49.1,34.1,29.78,NNW,327,1.0,2.0,56,0.00,,,0.00,Wunderground v.1.15,2013-03-04 18:38:00,
2013-03-04 12:43:00,49.4,33.0,29.78,NNW,333,1.0,1.0,53,0.00,,,0.00,Wunderground v.1.15,2013-03-04 18:43:00,
2013-03-04 12:53:00,49.2,32.3,29.78,NNE,32,2.0,2.0,52,0.00,,,0.00,Wunderground v.1.15,2013-03-04 18:53:00,
2013-03-04 13:03:00,48.5,31.7,29.77,NE,38,1.0,2.0,52,0.00,,,0.00,Wunderground v.1.15,2013-03-04 19:03:00,
2013-03-04 13:13:00,47.5,31.7,29.77,NNE,13,1.0,5.0,54,0.00,,,0.00,Wunderground v.1.15,2013-03-04 19:13:00,
2013-03-04 13:23:00,46.4,31.1,29.77,NNE,30,4.0,4.0,55,0.00,,,0.00,Wunderground v.1.15,2013-03-04 19:23:00,
2013-03-04 13:33:00,45.4,31.0,29.77,NNE,18,3.0,3.0,57,0.00,,,0.00,Wunderground v.1.15,2013-03-04 19:33:00,
2013-03-04 13:43:00,44.6,31.1,29.78,NW,326,3.0,6.0,59,0.00,,,0.00,Wunderground v.1.15,2013-03-04 19:43:00,
2013-03-04 13:53:00,44.3,31.3,29.78,NNE,17,4.0,4.0,60,0.00,,,0.00,Wunderground v.1.15,2013-03-04 19:53:00,
2013-03-04 14:03:00,44.2,30.8,29.78,North,360,4.0,4.0,59,0.00,,,0.00,Wunderground v.1.15,2013-03-04 20:03:00,
2013-03-04 14:13:00,43.8,30.8,29.78,North,11,4.0,4.0,60,0.00,,,0.00,Wunderground v.1.15,2013-03-04 20:13:00,
2013-03-04 14:23:00,43.7,30.7,29.79,North,11,4.0,5.0,60,0.00,,,0.00,Wunderground v.1.15,2013-03-04 20:23:00,
2013-03-04 14:33:00,43.7,31.1,29.79,NW,315,3.0,5.0,61,0.00,,,0.00,Wunderground v.1.15,2013-03-04 20:33:00,
2013-03-04 14:43:00,43.3,30.7,29.79,NNW,339,4.0,5.0,61,0.00,,,0.00,Wunderground v.1.15,2013-03-04 20:43:00,
2013-03-04 14:53:00,43.0,30.9,29.79,NNE,18,3.0,3.0,62,0.00,,,0.00,Wunderground v.1.15,2013-03-04 20:53:00,
2013-03-04 15:03:00,42.8,30.7,29.79,NNE,32,2.0,4.0,62,0.00,,,0.00,Wunderground v.1.15,2013-03-04 21:03:00,
2013-03-04 15:13:00,42.6,30.9,29.79,NNE,32,3.0,3.0,63,0.00,,,0.00,Wunderground v.1.15,2013-03-04 21:13:00,
2013-03-04 15:23:00,42.3,30.6,29.79,North,355,2.0,4.0,63,0.00,,,0.00,Wunderground v.1.15,2013-03-04 21:23:00,
2013-03-04 15:33:00,41.9,30.6,29.79,North,355,3.0,6.0,64,0.00,,,0.00,Wunderground v.1.15,2013-03-04 21:33:00,
2013-03-04 15:43:00,41.4,30.1,29.79,NNE,28,5.0,5.0,64,0.00,,,0.00,Wunderground v.1.15,2013-03-04 21:43:00,
2013-03-04 15:53:00,41.1,30.2,29.79,NNE,22,3.0,3.0,65,0.00,,,0.00,Wunderground v.1.15,2013-03-04 21:53:00,
2013-03-04 16:03:00,41.1,30.6,29.80,NNE,25,3.0,4.0,66,0.00,,,0.00,Wunderground v.1.15,2013-03-04 22:03:00,
2013-03-04 16:13:00,41.1,30.6,29.80,NE,36,2.0,2.0,66,0.00,,,0.00,Wunderground v.1.15,2013-03-04 22:13:00,
2013-03-04 16:23:00,41.1,30.6,29.81,NE,41,3.0,5.0,66,0.00,,,0.00,Wunderground v.1.15,2013-03-04 22:23:00,
2013-03-04 16:33:00,41.0,32.0,29.81,NE,34,3.0,3.0,70,0.00,,,0.00,Wunderground v.1.15,2013-03-04 22:33:00,
2013-03-04 16:43:00,40.7,30.2,29.82,NE,36,3.0,4.0,66,0.00,,,0.00,Wunderground v.1.15,2013-03-04 22:43:00,
2013-03-04 16:53:00,40.4,30.3,29.83,NNE,24,2.0,4.0,67,0.00,,,0.00,Wunderground v.1.15,2013-03-04 22:53:00,
2013-03-04 17:03:00,40.1,30.0,29.84,NE,42,2.0,5.0,67,0.00,,,0.00,Wunderground v.1.15,2013-03-04 23:03:00,
2013-03-04 17:13:00,39.7,30.0,29.86,NNE,16,2.0,2.0,68,0.00,,,0.00,Wunderground v.1.15,2013-03-04 23:13:00,
2013-03-04 17:23:00,39.4,30.1,29.86,North,5,2.0,2.0,69,0.00,,,0.00,Wunderground v.1.15,2013-03-04 23:23:00,
2013-03-04 17:33:00,39.1,30.1,29.88,North,9,2.0,2.0,70,0.00,,,0.00,Wunderground v.1.15,2013-03-04 23:33:00,
2013-03-04 17:43:00,38.8,29.8,29.89,North,10,2.0,2.0,70,0.00,,,0.00,Wunderground v.1.15,2013-03-04 23:43:00,
2013-03-04 17:53:00,38.5,29.9,29.90,North,360,2.0,2.0,71,0.00,,,0.00,Wunderground v.1.15,2013-03-04 23:53:00,
2013-03-04 18:03:00,38.1,29.9,29.91,NNE,14,4.0,4.0,72,0.00,,,0.00,Wunderground v.1.15,2013-03-05 00:03:00,
2013-03-04 18:13:00,37.7,29.5,29.91,North,360,4.0,4.0,72,0.00,,,0.00,Wunderground v.1.15,2013-03-05 00:13:00,
2013-03-04 18:23:00,37.4,29.5,29.92,NNE,28,2.0,2.0,73,0.00,,,0.00,Wunderground v.1.15,2013-03-05 00:23:00,
2013-03-04 18:33:00,37.0,29.5,29.94,North,355,4.0,4.0,74,0.00,,,0.00,Wunderground v.1.15,2013-03-05 00:33:00,
2013-03-04 18:43:00,36.8,29.3,29.92,NE,51,2.0,7.0,74,0.00,,,0.00,Wunderground v.1.15,2013-03-05 00:43:00,
2013-03-04 18:53:00,36.6,29.4,29.95,NNE,25,3.0,3.0,75,0.00,,,0.00,Wunderground v.1.15,2013-03-05 00:53:00,
2013-03-04 19:03:00,36.5,29.3,29.96,NNE,24,2.0,2.0,75,0.00,,,0.00,Wunderground v.1.15,2013-03-05 01:03:00,
2013-03-04 19:13:00,36.4,29.2,29.98,NNW,340,2.0,4.0,75,0.00,,,0.00,Wunderground v.1.15,2013-03-05 01:13:00,
2013-03-04 19:23:00,36.4,29.2,29.99,NNE,31,1.0,1.0,75,0.00,,,0.00,Wunderground v.1.15,2013-03-05 01:23:00,
2013-03-04 19:33:00,36.3,29.1,29.99,East,92,1.0,2.0,75,0.00,,,0.00,Wunderground v.1.15,2013-03-05 01:33:00,
2013-03-04 19:43:00,36.2,29.4,29.99,NNE,15,2.0,2.0,76,0.00,,,0.00,Wunderground v.1.15,2013-03-05 01:43:00,
2013-03-04 19:53:00,36.1,29.3,29.98,NNE,27,2.0,2.0,76,0.00,,,0.00,Wunderground v.1.15,2013-03-05 01:53:00,
2013-03-04 20:03:00,36.1,29.3,29.97,NNE,32,2.0,2.0,76,0.00,,,0.00,Wunderground v.1.15,2013-03-05 02:03:00,
2013-03-04 20:13:00,36.0,29.2,29.98,NNE,19,2.0,2.0,76,0.00,,,0.00,Wunderground v.1.15,2013-03-05 02:13:00,
2013-03-04 20:23:00,35.9,29.1,29.98,NNE,18,1.0,4.0,76,0.00,,,0.00,Wunderground v.1.15,2013-03-05 02:23:00,
2013-03-04 20:33:00,35.8,29.0,29.98,NE,44,1.0,1.0,76,0.00,,,0.00,Wunderground v.1.15,2013-03-05 02:33:00,
2013-03-04 20:43:00,35.8,29.0,29.98,NNE,28,2.0,2.0,76,0.00,,,0.00,Wunderground v.1.15,2013-03-05 02:43:00,
2013-03-04 20:53:00,35.7,28.9,29.99,ENE,57,1.0,1.0,76,0.00,,,0.00,Wunderground v.1.15,2013-03-05 02:53:00,
2013-03-04 21:03:00,35.7,28.9,30.00,NE,53,0.0,0.0,76,0.00,,,0.00,Wunderground v.1.15,2013-03-05 03:03:00,
2013-03-04 21:13:00,35.7,28.9,30.00,NNE,21,1.0,1.0,76,0.00,,,0.00,Wunderground v.1.15,2013-03-05 03:13:00,
2013-03-04 21:23:00,35.7,29.2,30.01,NE,51,1.0,1.0,77,0.00,,,0.00,Wunderground v.1.15,2013-03-05 03:23:00,
2013-03-04 21:33:00,35.6,29.1,30.01,NNE,13,1.0,4.0,77,0.00,,,0.00,Wunderground v.1.15,2013-03-05 03:33:00,
2013-03-04 21:43:00,35.6,29.1,30.01,NNE,26,1.0,1.0,77,0.00,,,0.00,Wunderground v.1.15,2013-03-05 03:43:00,
2013-03-04 21:53:00,35.5,29.0,30.02,NNE,31,3.0,3.0,77,0.00,,,0.00,Wunderground v.1.15,2013-03-05 03:53:00,
2013-03-04 22:03:00,35.4,28.9,30.02,NE,35,3.0,3.0,77,0.00,,,0.00,Wunderground v.1.15,2013-03-05 04:03:00,
2013-03-04 22:13:00,35.3,28.8,30.02,NNE,22,2.0,2.0,77,0.00,,,0.00,Wunderground v.1.15,2013-03-05 04:13:00,
2013-03-04 22:23:00,35.4,28.9,30.02,NNE,14,2.0,2.0,77,0.00,,,0.00,Wunderground v.1.15,2013-03-05 04:23:00,
2013-03-04 22:33:00,35.3,28.8,30.02,NE,42,3.0,3.0,77,0.00,,,0.00,Wunderground v.1.15,2013-03-05 04:33:00,
2013-03-04 22:43:00,35.3,28.8,30.02,NE,52,2.0,2.0,77,0.00,,,0.00,Wunderground v.1.15,2013-03-05 04:43:00,
2013-03-04 22:53:00,35.2,29.0,30.04,NE,41,3.0,3.0,78,0.00,,,0.00,Wunderground v.1.15,2013-03-05 04:53:00,
2013-03-04 23:03:00,35.0,29.5,30.04,North,360,2.0,2.0,80,0.00,,,0.00,Wunderground v.1.15,2013-03-05 05:03:00,
2013-03-04 23:08:00,34.8,29.6,30.04,NNE,21,3.0,3.0,81,0.00,,,0.00,Wunderground v.1.15,2013-03-05 05:08:00,
2013-03-04 23:13:00,34.7,29.5,30.05,NNE,27,4.0,4.0,81,0.00,,,0.00,Wunderground v.1.15,2013-03-05 05:13:00,
2013-03-04 23:23:00,34.4,29.2,30.05,NW,310,1.0,1.0,81,0.00,,,0.00,Wunderground v.1.15,2013-03-05 05:23:00,
2013-03-04 23:33:00,34.3,29.4,30.05,North,355,1.0,1.0,82,0.00,,,0.00,Wunderground v.1.15,2013-03-05 05:33:00,
2013-03-04 23:43:00,34.0,29.1,30.04,NW,322,1.0,1.0,82,0.00,,,0.00,Wunderground v.1.15,2013-03-05 05:43:00,
2013-03-04 23:53:00,33.9,29.3,30.04,NNW,329,0.0,1.0,83,0.00,,,0.00,Wunderground v.1.15,2013-03-05 05:53:00,